[[{"header":{"parameterUnit":"m.s-1","parameterCategory":1,"la1":30.2992,"la2":30.254,"lo1":-89.0895,"lo2":-89.0443,"dy":0.0025,"dx":0.0025,"nx":19,"ny":19,"refTime":"2026-05-09T09:00:00:Z","depth":0,"parameterNumber":2,"parameterNumberName":"U-component_of_WINDS"},"data":[0,0,0,-0.4488,-0.4489,-0.4529,-0.4529,-0.4586,-0.4587,0,0,0,0,0,0,0,0,0,0,0,-0.4478,-0.4479,-0.4488,-0.4489,-0.4529,-0.4529,-0.4586,-0.4587,0,0,0,0,0,0,0,0,0,0,0,-0.4478,-0.4479,-0.4479,-0.4489,-0.4529,-0.4529,-0.4586,-0.4554,0,0,0,0,0,0,0,0,0,0,-0.4515,-0.4507,-0.4478,-0.4479,-0.4489,-0.4529,-0.4529,-0.4552,-0.4556,-0.457,0,-0.4582,0,-0.4585,-0.4591,-0.4591,0,0,0,-0.4488,-0.4504,-0.4513,-0.4479,-0.449,-0.4529,-0.451,-0.4554,-0.4559,-0.4575,-0.4583,-0.4585,-0.4586,-0.4591,-0.4592,-0.4675,-0.4675,0,0,-0.4486,-0.4487,-0.451,-0.4515,-0.4508,-0.4509,-0.4512,-0.4557,-0.4566,-0.4583,-0.4586,-0.4587,-0.4592,-0.4592,-0.4674,-0.4675,0,0,0,-0.448,-0.4485,-0.4493,-0.4513,-0.452,-0.451,-0.4513,-0.4564,-0.4566,-0.4587,-0.4588,-0.4592,-0.4593,-0.4674,-0.4674,-0.4696,0,0,0,-0.4479,-0.4482,-0.4492,-0.4493,-0.4519,-0.4542,-0.4519,-0.4563,-0.4568,-0.4588,-0.4592,-0.4593,-0.4673,-0.4674,-0.4694,-0.4706,0,0,0,-0.4475,-0.4482,-0.4488,-0.4493,-0.451,-0.4541,-0.4546,-0.4564,-0.4569,-0.4591,-0.4594,-0.4673,-0.4674,-0.4693,-0.4704,-0.4728,0,0,0,-0.4472,-0.4507,-0.4488,-0.4529,-0.451,-0.4554,-0.4546,-0.4579,-0.4601,-0.4592,-0.4673,-0.4674,-0.4693,-0.4702,-0.4726,-0.4747,-0.4756,0,0,-0.4517,-0.4512,-0.4536,-0.4521,-0.4568,-0.4548,-0.46,-0.4619,-0.4622,-0.4657,-0.4659,-0.4695,-0.4703,-0.4727,-0.4809,-0.4817,0,0,0,-0.4551,-0.4568,-0.4581,-0.4601,-0.4616,-0.4631,-0.4642,-0.465,-0.468,-0.464,-0.4711,-0.4716,-0.473,-0.474,-0.4746,-0.4758,-0.4679,-0.4679,-0.4679,-0.4616,-0.4616,-0.4656,-0.4661,-0.4682,-0.4694,-0.4711,-0.4723,-0.4718,-0.4735,-0.4745,-0.4795,-0.4807,-0.4811,-0.4824,-0.4758,-0.4758,-0.4758,-0.4758,-0.4682,-0.4706,-0.4699,-0.4734,-0.4735,-0.4766,-0.4781,-0.4776,-0.4806,-0.4787,-0.4799,-0.4777,-0.4819,-0.483,-0.476,-0.4759,-0.4759,-0.4759,-0.4759,-0.4723,-0.4734,-0.4743,-0.4773,-0.4797,-0.4803,-0.4832,-0.4832,-0.4833,-0.4846,-0.4857,-0.4856,-0.4855,-0.4851,-0.4851,-0.4852,-0.4852,-0.4852,-0.4852,-0.4762,-0.4771,-0.4794,-0.4815,-0.4828,-0.4847,-0.4862,-0.4876,-0.4892,-0.489,-0.489,-0.4884,-0.4823,-0.4807,-0.4855,-0.4854,-0.4854,-0.4854,-0.4853,-0.4826,-0.4812,-0.4848,-0.4862,-0.4887,-0.4911,-0.4912,-0.4942,-0.4954,-0.4969,-0.496,-0.4916,-0.4911,-0.4907,-0.4893,-0.496,-0.496,-0.496,-0.496,-0.486,-0.4858,-0.4895,-0.4918,-0.494,-0.4945,-0.4988,-0.5001,-0.5012,-0.502,-0.5011,-0.4994,-0.499,-0.4988,-0.4982,-0.4969,-0.5054,-0.5054,-0.5054,-0.49,-0.49,-0.4935,-0.4944,-0.4965,-0.4983,-0.5023,-0.5051,-0.5061,-0.5058,-0.5027,-0.5023,-0.4996,-0.4987,-0.498,-0.497,-0.4947,0,0]},{"header":{"parameterUnit":"m.s-1","parameterCategory":1,"la1":30.2992,"la2":30.254,"lo1":-89.0895,"lo2":-89.0443,"dy":0.0025,"dx":0.0025,"nx":19,"ny":19,"refTime":"2026-05-09T09:00:00:Z","depth":0,"parameterNumber":3,"parameterNumberName":"V-component_of_WINDS"},"data":[0,0,0,2.7769,2.7772,2.7905,2.7905,2.8095,2.8097,0,0,0,0,0,0,0,0,0,0,0,2.7743,2.7745,2.7768,2.7772,2.7905,2.7905,2.8095,2.8097,0,0,0,0,0,0,0,0,0,0,0,2.7742,2.7744,2.7747,2.7773,2.7905,2.7905,2.8094,2.7986,0,0,0,0,0,0,0,0,0,0,2.7854,2.7844,2.7744,2.7747,2.7773,2.7904,2.7905,2.7981,2.7993,2.8044,0,2.8094,0,2.8098,2.8111,2.8112,0,0,0,2.7762,2.7834,2.7857,2.7747,2.7775,2.7904,2.7842,2.7988,2.8001,2.806,2.8096,2.8103,2.8102,2.8112,2.8113,2.844,2.8442,0,0,2.7754,2.7774,2.7848,2.7867,2.785,2.7838,2.7846,2.7996,2.8036,2.8097,2.8107,2.8105,2.8114,2.8115,2.8438,2.8441,0,0,0,2.774,2.777,2.7789,2.786,2.7882,2.7842,2.7851,2.8029,2.8034,2.8109,2.8107,2.8115,2.8118,2.8436,2.8439,2.8557,0,0,0,2.7735,2.7761,2.7786,2.78,2.788,2.7958,2.7882,2.8023,2.804,2.8106,2.8115,2.812,2.8434,2.8438,2.8549,2.861,0,0,0,2.773,2.7761,2.7785,2.7801,2.7858,2.7955,2.7968,2.8026,2.8039,2.8112,2.812,2.8432,2.8437,2.8542,2.8598,2.87,0,0,0,2.7729,2.789,2.7787,2.7965,2.7858,2.8028,2.7967,2.8093,2.8169,2.8116,2.8434,2.8439,2.854,2.8591,2.8693,2.879,2.8832,0,0,2.7943,2.7916,2.8019,2.7931,2.8124,2.8006,2.8216,2.8267,2.8256,2.8379,2.8387,2.8552,2.8597,2.8699,2.9064,2.9098,0,0,0,2.8093,2.8167,2.8214,2.8287,2.833,2.837,2.8386,2.8404,2.8508,2.8324,2.8616,2.8643,2.8701,2.8746,2.8775,2.8823,2.8461,2.846,2.846,2.8425,2.84,2.8567,2.8558,2.8629,2.8643,2.8698,2.8724,2.868,2.8749,2.8786,2.901,2.9064,2.9086,2.9136,2.8835,2.8836,2.8836,2.8837,2.8734,2.8834,2.8768,2.8906,2.8878,2.8994,2.9012,2.8976,2.9078,2.8982,2.9032,2.8929,2.9124,2.9166,2.8845,2.8844,2.8843,2.8842,2.8841,2.8948,2.8991,2.9009,2.911,2.919,2.9174,2.9274,2.9245,2.9219,2.9269,2.9302,2.93,2.9293,2.9287,2.9288,2.9288,2.9289,2.929,2.929,2.9162,2.9179,2.9267,2.9323,2.9364,2.9414,2.9427,2.9466,2.9502,2.9473,2.9473,2.942,2.9148,2.9079,2.9302,2.93,2.9298,2.9297,2.9297,2.9484,2.9405,2.9542,2.9583,2.9644,2.9723,2.9684,2.9766,2.9794,2.9843,2.9779,2.9583,2.9553,2.953,2.9473,2.9785,2.9785,2.9785,2.9785,2.9663,2.9645,2.9776,2.9843,2.9905,2.9883,3.0035,3.0045,3.0042,3.0057,3.0008,2.993,2.9908,2.9891,2.9861,2.9807,3.0196,3.0197,3.0197,2.9859,2.9844,2.9981,2.9977,3.0021,3.0059,3.02,3.0278,3.0259,3.0213,3.0068,3.0051,2.9924,2.9885,2.9837,2.9789,2.969,0,0]}]]